STARLINK-34867

Last updated on Thu Oct 02 2025 00:02:05 GMT+0000 (Coordinated Universal Time)

1 65459U 25195B 25274.50002315 -.00288348 00000+0 -74350-2 0 9992 2 65459 53.1592 280.7357 0000941 73.0714 45.2747 15.39781207 4943
UTC large
Height (km)
Speed (km/s)
/
Latitude / Longitude
Inclination (degrees)
Orbital Period (minutes)
Azimuth
Elevation
Range (km)
Doppler Factor

Next 0 passes for location: London (51.5072 / 0.1276)

Sorry there are no passes over London.
STARLINK-34867